Location: Unspecified
(43.4680°N, 87.1740°E)
Time: 20:56:25
(UTC+00:00)

NOSS 0 Rocket - Pass Details

Date: 04 August 2021
Orbit: 936 x 954 km, 70.0° (Epoch: 22 September)

Event Time Altitude Azimuth Distance (km) Brightness Sun altitude
Rises 17:46:15 0° 325° (NW) 3,633 7.9 -29.1°
Reaches altitude 10° 17:49:04 10° 315° (NW) 2,681 6.9 -29.2°
Enters shadow 17:54:08 31° 261° (W) 1,600 5.0 -29.3°
